USA 325

Last updated on Wed Oct 22 2025 00:02:50 GMT+0000 (Coordinated Universal Time)

1 51281U 22006B 25293.78389638 -.00000278 00000+0 00000+0 0 9996 2 51281 0.3238 87.9116 0008141 89.0589 226.4785 1.00492472 13726
UTC large
Height (km)
Speed (km/s)
/
Latitude / Longitude
Inclination (degrees)
Orbital Period (minutes)
Azimuth
Elevation
Range (km)
Doppler Factor

Next 0 passes for location: London (51.5072 / 0.1276)

Sorry there are no passes over London.